Location: Pitton
(51.0667°N, 1.7000°W)
Time: 05:47:10
(UTC+00:00)

Meteor 2-9 Rocket - Pass Details

Date: 17 September 2019
Orbit: 791 x 896 km, 81.3° (Epoch: 19 October)

Event Time Altitude Azimuth Distance (km) Brightness Sun altitude
Rises 19:19:22 0° 192° (SSW) 3,478 7.4 -10.4°
Reaches altitude 10° 19:21:50 10° 193° (SSW) 2,532 6.7 -10.8°
Maximum altitude 19:27:37 84° 283° (WNW) 878 4.4 -11.7°
Drops below altitude 10° 19:33:17 10° 11° (NNE) 2,484 6.7 -12.5°
Sets 19:35:41 0° 13° (NNE) 3,407 7.5 -12.9°
